Flag for Germany Weather past 2 weeks in Detmold, North Rhine-Westphalia, Germany

Now
57 °F

Overcast.


Feels Like: 57 °F
Forecast: 44 / 58 °F
Wind: 3 mph from Southeast

Location: Bad Lippspringe

Current Time: May 29, 2015 at 11:11:53 AM

Latest Report: May 29, 2015 at 10:00 AM


Visibility: 7 mi

Pressure: 29.87 "Hg

Humidity: 67%

Dew point: 46 °F

Location of DetmoldLocation

Historic Weather in Detmold — Graph

°F

Detmold temperature yesterday

Maximum temperature yesterday: 67 °F (at 4:00 PM)
Minimum temperature yesterday: 51 °F (at 1:00 AM)
Average temperature yesterday: 57 °F

Past Weeks' High & Low Weather Summary

 TemperatureHumidityPressure
High69 °F (May 18, 4:00 PM)100% (May 29, 2:00 AM)30.35 "Hg (May 29, 2:00 AM)
Low35 °F (May 17, 5:00 AM)35% (May 28, 1:00 PM)29.62 "Hg (May 18, 9:00 PM)
Average52 °F71%30.06 "Hg
* Reported May 14 10:00 AM — May 29 10:00 AM, Detmold, Weather by CustomWeather, © 2015

Note: Actual official high and low records may vary slightly from our data, if they occured in-between our weather recording intervals... More about our weather records

Advertising

Detmold weather history for previous 24 hours

 ConditionsComfort  
Time TempWeatherWind HumidityBarometerVisibility
10:00 AM
Fri, May 29
57 °FOvercast.3 mph67%29.87 "Hg7 mi
9:00 AM55 °FPartly sunny.3 mph79%29.89 "Hg4 mi
8:00 AM51 °FOvercast.3 mph82%29.91 "Hg6 mi
7:00 AM47 °FFog.1 mph92%29.92 "Hg4 mi
6:00 AM44 °FFog.1 mph99%29.93 "Hg3 mi
5:00 AM43 °FFog.1 mph100%29.94 "Hg1 mi
4:00 AM43 °FPassing clouds.1 mph100%29.96 "Hg1 mi
3:00 AM44 °FPassing clouds.1 mph100%29.97 "Hg1 mi
2:00 AM47 °FOvercast.1 mph100%29.97 "Hg1 mi
1:00 AM50 °FFog.1 mph99%29.96 "Hg1 mi
11:00 PM
Thu, May 28
51 °FOvercast.2 mph97%29.96 "Hg2 mi
10:00 PM52 °FLow clouds.3 mph96%29.95 "Hg2 mi
9:00 PM52 °FDrizzle. Overcast.3 mph95%29.94 "Hg3 mi
8:00 PM52 °FDrizzle. Overcast.2 mph95%29.93 "Hg2 mi
7:00 PM53 °FLight rain. Overcast.2 mph86%29.93 "Hg6 mi
6:00 PM56 °FOvercast.6 mph68%29.90 "Hg16 mi
5:00 PM62 °FOvercast.5 mph61%29.88 "Hg17 mi
4:00 PM67 °FPartly sunny.10 mph43%29.87 "Hg11 mi
3:00 PM67 °FPartly sunny.8 mph44%29.88 "Hg8 mi
2:00 PM64 °FOvercast.9 mph42%29.89 "Hg22 mi
1:00 PM67 °FOvercast.10 mph35%29.89 "Hg8 mi
12:00 PM65 °FOvercast.8 mph40%29.91 "Hg16 mi
11:00 AM62 °FOvercast.8 mph52%29.92 "Hg9 mi
Weather by CustomWeather, © 2015

See weather overviewHow to use our weather pages